Year,Month,Day,Hour,Minute,Value (Times are PST for temperature in C)
2018,04,18,00,00,8.10
2018,04,18,00,01,8.10
2018,04,18,00,02,8.10
2018,04,18,00,03,8.10
2018,04,18,00,04,8.10
2018,04,18,00,05,8.10
2018,04,18,00,06,8.10
2018,04,18,00,07,8.00
2018,04,18,00,08,8.00
2018,04,18,00,09,8.00
2018,04,18,00,10,8.00
2018,04,18,00,11,7.90
2018,04,18,00,12,7.90
2018,04,18,00,13,7.90
2018,04,18,00,14,7.90
2018,04,18,00,15,7.80
2018,04,18,00,16,7.80
2018,04,18,00,17,7.70
2018,04,18,00,18,7.70
2018,04,18,00,19,7.60
2018,04,18,00,20,7.60
2018,04,18,00,21,7.50
2018,04,18,00,22,7.50
2018,04,18,00,23,7.50
2018,04,18,00,24,7.50
2018,04,18,00,25,7.40
2018,04,18,00,26,7.40
2018,04,18,00,27,7.40
2018,04,18,00,28,7.30
2018,04,18,00,29,7.30
2018,04,18,00,30,7.30
2018,04,18,00,31,7.30
2018,04,18,00,32,7.30
2018,04,18,00,33,7.30
2018,04,18,00,34,7.40
2018,04,18,00,35,7.40
2018,04,18,00,36,7.50
2018,04,18,00,37,7.50
2018,04,18,00,38,7.60
2018,04,18,00,39,7.60
2018,04,18,00,40,7.60
2018,04,18,00,41,7.60
2018,04,18,00,42,7.60
2018,04,18,00,43,7.60
2018,04,18,00,44,7.60
2018,04,18,00,45,7.60
2018,04,18,00,46,7.60
2018,04,18,00,47,7.70
2018,04,18,00,48,7.70
2018,04,18,00,49,7.70
2018,04,18,00,50,7.70
2018,04,18,00,51,7.70
2018,04,18,00,52,7.70
2018,04,18,00,53,7.70
2018,04,18,00,54,7.70
2018,04,18,00,55,7.70
2018,04,18,00,56,7.50
2018,04,18,00,57,7.40
2018,04,18,00,58,7.40
2018,04,18,00,59,7.40
2018,04,18,01,00,7.30
2018,04,18,01,01,7.30
2018,04,18,01,02,7.30
2018,04,18,01,03,7.30
2018,04,18,01,04,7.20
2018,04,18,01,05,7.20
2018,04,18,01,06,7.20
2018,04,18,01,07,7.20
2018,04,18,01,08,7.20
2018,04,18,01,09,7.20
2018,04,18,01,10,7.20
2018,04,18,01,11,7.30
2018,04,18,01,12,7.30
2018,04,18,01,13,7.30
2018,04,18,01,14,7.40
2018,04,18,01,15,7.40
2018,04,18,01,16,7.40
2018,04,18,01,17,7.50
2018,04,18,01,18,7.50
2018,04,18,01,19,7.50
2018,04,18,01,20,7.50
2018,04,18,01,21,7.50
2018,04,18,01,22,7.50
2018,04,18,01,23,7.50
2018,04,18,01,24,7.50
2018,04,18,01,25,7.40
2018,04,18,01,26,7.40
2018,04,18,01,27,7.40
2018,04,18,01,28,7.40
2018,04,18,01,29,7.30
2018,04,18,01,30,7.30
2018,04,18,01,31,7.30
2018,04,18,01,32,7.30
2018,04,18,01,33,7.30
2018,04,18,01,34,7.40
2018,04,18,01,35,7.40
2018,04,18,01,36,7.40
2018,04,18,01,37,7.40
2018,04,18,01,38,7.40
2018,04,18,01,39,7.40
2018,04,18,01,40,7.40
2018,04,18,01,41,7.50
2018,04,18,01,42,7.50
2018,04,18,01,43,7.50
2018,04,18,01,44,7.50
2018,04,18,01,45,7.50
2018,04,18,01,46,7.60
2018,04,18,01,47,7.60
2018,04,18,01,48,7.60
2018,04,18,01,49,7.60
2018,04,18,01,50,7.60
2018,04,18,01,51,7.60
2018,04,18,01,52,7.60
2018,04,18,01,53,7.60
2018,04,18,01,54,7.60
2018,04,18,01,55,7.60
2018,04,18,01,56,7.60
2018,04,18,01,57,7.60
2018,04,18,01,58,7.50
2018,04,18,01,59,7.60
2018,04,18,02,00,7.50
2018,04,18,02,01,7.60
2018,04,18,02,02,7.60
2018,04,18,02,03,7.50
2018,04,18,02,04,7.50
2018,04,18,02,05,7.50
2018,04,18,02,06,7.50
2018,04,18,02,07,7.50
2018,04,18,02,08,7.50
2018,04,18,02,09,7.50
2018,04,18,02,10,7.50
2018,04,18,02,11,7.50
2018,04,18,02,12,7.50
2018,04,18,02,13,7.50
2018,04,18,02,14,7.50
2018,04,18,02,15,7.50
2018,04,18,02,16,7.50
2018,04,18,02,17,7.50
2018,04,18,02,18,7.50
2018,04,18,02,19,7.50
2018,04,18,02,20,7.50
2018,04,18,02,21,7.40
2018,04,18,02,22,7.40
2018,04,18,02,23,7.40
2018,04,18,02,24,7.30
2018,04,18,02,25,7.30
2018,04,18,02,26,7.30
2018,04,18,02,27,7.30
2018,04,18,02,28,7.30
2018,04,18,02,29,7.30
2018,04,18,02,30,7.30
2018,04,18,02,31,7.30
2018,04,18,02,32,7.30
2018,04,18,02,33,7.30
2018,04,18,02,34,7.30
2018,04,18,02,35,7.30
2018,04,18,02,36,7.30
2018,04,18,02,37,7.30
2018,04,18,02,38,7.30
2018,04,18,02,39,7.30
2018,04,18,02,40,7.20
2018,04,18,02,41,7.10
2018,04,18,02,42,7.10
2018,04,18,02,43,7.00
2018,04,18,02,44,7.00
2018,04,18,02,45,6.90
2018,04,18,02,46,6.80
2018,04,18,02,47,6.80
2018,04,18,02,48,6.70
2018,04,18,02,49,6.60
2018,04,18,02,50,6.50
2018,04,18,02,51,6.50
2018,04,18,02,52,6.40
2018,04,18,02,53,6.30
2018,04,18,02,54,6.30
2018,04,18,02,55,6.20
2018,04,18,02,56,6.20
2018,04,18,02,57,6.10
2018,04,18,02,58,6.10
2018,04,18,02,59,6.10
2018,04,18,03,00,6.10
2018,04,18,03,01,6.00
2018,04,18,03,02,6.00
2018,04,18,03,03,6.00
2018,04,18,03,04,6.00
2018,04,18,03,05,6.00
2018,04,18,03,06,6.00
2018,04,18,03,07,5.90
2018,04,18,03,08,5.90
2018,04,18,03,09,5.90
2018,04,18,03,10,5.90
2018,04,18,03,11,5.90
2018,04,18,03,12,5.90
2018,04,18,03,13,5.90
2018,04,18,03,14,5.80
2018,04,18,03,15,5.80
2018,04,18,03,16,5.80
2018,04,18,03,17,5.80
2018,04,18,03,18,5.80
2018,04,18,03,19,5.70
2018,04,18,03,20,5.70
2018,04,18,03,21,5.70
2018,04,18,03,22,5.70
2018,04,18,03,23,5.60
2018,04,18,03,24,5.60
2018,04,18,03,25,5.60
2018,04,18,03,26,5.60
2018,04,18,03,27,5.60
2018,04,18,03,28,5.60
2018,04,18,03,29,5.60
2018,04,18,03,30,5.50
2018,04,18,03,31,5.50
2018,04,18,03,32,5.50
2018,04,18,03,33,5.50
2018,04,18,03,34,5.50
2018,04,18,03,35,5.50
2018,04,18,03,36,5.50
2018,04,18,03,37,5.50
2018,04,18,03,38,5.40
2018,04,18,03,39,5.40
2018,04,18,03,40,5.40
2018,04,18,03,41,5.40
2018,04,18,03,42,5.30
2018,04,18,03,43,5.30
2018,04,18,03,44,5.30
2018,04,18,03,45,5.30
2018,04,18,03,46,5.30
2018,04,18,03,47,5.30
2018,04,18,03,48,5.30
2018,04,18,03,49,5.30
2018,04,18,03,50,5.30
2018,04,18,03,51,5.30
2018,04,18,03,52,5.30
2018,04,18,03,53,5.30
2018,04,18,03,54,5.30
2018,04,18,03,55,5.30
2018,04,18,03,56,5.30
2018,04,18,03,57,5.30
2018,04,18,03,58,5.30
2018,04,18,03,59,5.30
2018,04,18,04,00,5.30
2018,04,18,04,01,5.30
2018,04,18,04,02,5.20
2018,04,18,04,03,5.20
2018,04,18,04,04,5.20
2018,04,18,04,05,5.20
2018,04,18,04,06,5.20
2018,04,18,04,07,5.10
2018,04,18,04,08,5.10
2018,04,18,04,09,5.10
2018,04,18,04,10,5.10
2018,04,18,04,11,5.00
2018,04,18,04,12,5.00
2018,04,18,04,13,4.90
2018,04,18,04,14,4.90
2018,04,18,04,15,4.90
2018,04,18,04,16,4.80
2018,04,18,04,17,4.80
2018,04,18,04,18,4.80
2018,04,18,04,19,4.70
2018,04,18,04,20,4.70
2018,04,18,04,21,4.70
2018,04,18,04,22,4.70
2018,04,18,04,23,4.70
2018,04,18,04,24,4.70
2018,04,18,04,25,4.60
2018,04,18,04,26,4.60
2018,04,18,04,27,4.60
2018,04,18,04,28,4.50
2018,04,18,04,29,4.50
2018,04,18,04,30,4.40
2018,04,18,04,31,4.40
2018,04,18,04,32,4.40
2018,04,18,04,33,4.40
2018,04,18,04,34,4.30
2018,04,18,04,35,4.30
2018,04,18,04,36,4.30
2018,04,18,04,37,4.30
2018,04,18,04,38,4.30
2018,04,18,04,39,4.30
2018,04,18,04,40,4.30
2018,04,18,04,41,4.30
2018,04,18,04,42,4.30
2018,04,18,04,43,4.30
2018,04,18,04,44,4.30
2018,04,18,04,45,4.30
2018,04,18,04,46,4.20
2018,04,18,04,47,4.20
2018,04,18,04,48,4.20
2018,04,18,04,49,4.20
2018,04,18,04,50,4.20
2018,04,18,04,51,4.20
2018,04,18,04,52,4.20
2018,04,18,04,53,4.20
2018,04,18,04,54,4.20
2018,04,18,04,55,4.20
2018,04,18,04,56,4.10
2018,04,18,04,57,4.10
2018,04,18,04,58,4.10
2018,04,18,04,59,4.10
2018,04,18,05,00,4.10
2018,04,18,05,01,4.10
2018,04,18,05,02,4.10
2018,04,18,05,03,4.10
2018,04,18,05,04,4.10
2018,04,18,05,05,4.10
2018,04,18,05,06,4.10
2018,04,18,05,07,4.10
2018,04,18,05,08,4.10
2018,04,18,05,09,4.10
2018,04,18,05,10,4.10
2018,04,18,05,11,4.10
2018,04,18,05,12,4.10
2018,04,18,05,13,4.10
2018,04,18,05,14,4.10
2018,04,18,05,15,4.10
2018,04,18,05,16,4.10
2018,04,18,05,17,4.10
2018,04,18,05,18,4.10
2018,04,18,05,19,4.10
2018,04,18,05,20,4.10
2018,04,18,05,21,4.10
2018,04,18,05,22,4.10
2018,04,18,05,23,4.10
2018,04,18,05,24,4.10
2018,04,18,05,25,4.00
2018,04,18,05,26,4.00
2018,04,18,05,27,4.00
2018,04,18,05,28,4.00
2018,04,18,05,29,4.10
2018,04,18,05,30,4.10
2018,04,18,05,31,4.10
2018,04,18,05,32,4.10
2018,04,18,05,33,4.10
2018,04,18,05,34,4.10
2018,04,18,05,35,4.10
2018,04,18,05,36,4.10
2018,04,18,05,37,4.10
2018,04,18,05,38,4.00
2018,04,18,05,39,4.00
2018,04,18,05,40,4.00
2018,04,18,05,41,4.00
2018,04,18,05,42,3.90
2018,04,18,05,43,3.90
2018,04,18,05,44,3.90
2018,04,18,05,45,3.90
2018,04,18,05,46,3.90
2018,04,18,05,47,3.90
2018,04,18,05,48,3.90
2018,04,18,05,49,3.90
2018,04,18,05,50,3.80
2018,04,18,05,51,3.80
2018,04,18,05,52,3.80
2018,04,18,05,53,3.80
2018,04,18,05,54,3.80
2018,04,18,05,55,3.80
2018,04,18,05,56,3.80
2018,04,18,05,57,3.70
2018,04,18,05,58,3.70
2018,04,18,05,59,3.70
2018,04,18,06,00,3.70
2018,04,18,06,01,3.70
2018,04,18,06,02,3.70
2018,04,18,06,03,3.70
2018,04,18,06,04,3.70
2018,04,18,06,05,3.70
2018,04,18,06,06,3.70
2018,04,18,06,07,3.70
2018,04,18,06,08,3.70
2018,04,18,06,09,3.70
2018,04,18,06,10,3.70
2018,04,18,06,11,3.70
2018,04,18,06,12,3.70
2018,04,18,06,13,3.70
2018,04,18,06,14,3.70
2018,04,18,06,15,3.70
2018,04,18,06,16,3.80
2018,04,18,06,17,3.80
2018,04,18,06,18,3.80
2018,04,18,06,19,3.80
2018,04,18,06,20,3.80
2018,04,18,06,21,3.80
2018,04,18,06,22,3.80
2018,04,18,06,23,3.80
2018,04,18,06,24,3.80
2018,04,18,06,25,3.80
2018,04,18,06,26,3.80
2018,04,18,06,27,3.80
2018,04,18,06,28,3.80
2018,04,18,06,29,3.80
2018,04,18,06,30,3.80
2018,04,18,06,31,3.80
2018,04,18,06,32,3.80
2018,04,18,06,33,3.80
2018,04,18,06,34,3.80
2018,04,18,06,35,3.80
2018,04,18,06,36,3.80
2018,04,18,06,37,3.80
2018,04,18,06,38,3.80
2018,04,18,06,39,3.80
2018,04,18,06,40,3.80
2018,04,18,06,41,3.80
2018,04,18,06,42,3.80
2018,04,18,06,43,3.80
2018,04,18,06,44,3.80
2018,04,18,06,45,3.80
2018,04,18,06,46,3.80
2018,04,18,06,47,3.80
2018,04,18,06,48,3.80
2018,04,18,06,49,3.80
2018,04,18,06,50,3.80
2018,04,18,06,51,3.80
2018,04,18,06,52,3.80
2018,04,18,06,53,3.80
2018,04,18,06,54,3.80
2018,04,18,06,55,3.80
2018,04,18,06,56,3.80
2018,04,18,06,57,3.80
2018,04,18,06,58,3.80
2018,04,18,06,59,3.80
2018,04,18,07,00,3.80
2018,04,18,07,01,3.80
2018,04,18,07,02,3.80
2018,04,18,07,03,3.80
2018,04,18,07,04,3.80
2018,04,18,07,05,3.80
2018,04,18,07,06,3.80
2018,04,18,07,07,3.80
2018,04,18,07,08,3.80
2018,04,18,07,09,3.90
2018,04,18,07,10,3.90
2018,04,18,07,11,3.90
2018,04,18,07,12,3.90
2018,04,18,07,13,4.00
2018,04,18,07,14,4.00
2018,04,18,07,15,4.00
2018,04,18,07,16,4.10
2018,04,18,07,17,4.10
2018,04,18,07,18,4.10
2018,04,18,07,19,4.10
2018,04,18,07,20,4.10
2018,04,18,07,21,4.20
2018,04,18,07,22,4.20
2018,04,18,07,23,4.30
2018,04,18,07,24,4.30
2018,04,18,07,25,4.30
2018,04,18,07,26,4.30
2018,04,18,07,27,4.40
2018,04,18,07,28,4.40
2018,04,18,07,29,4.40
2018,04,18,07,30,4.40
2018,04,18,07,31,4.40
2018,04,18,07,32,4.50
2018,04,18,07,33,4.50
2018,04,18,07,34,4.50
2018,04,18,07,35,4.60
2018,04,18,07,36,4.60
2018,04,18,07,37,4.60
2018,04,18,07,38,4.70
2018,04,18,07,39,4.80
2018,04,18,07,40,4.80
2018,04,18,07,41,4.90
2018,04,18,07,42,4.90
2018,04,18,07,43,5.00
2018,04,18,07,44,5.00
2018,04,18,07,45,5.10
2018,04,18,07,46,5.10
2018,04,18,07,47,5.20
2018,04,18,07,48,5.20
2018,04,18,07,49,5.20
2018,04,18,07,50,5.20
2018,04,18,07,51,5.20
2018,04,18,07,52,5.30
2018,04,18,07,53,5.30
2018,04,18,07,54,5.30
2018,04,18,07,55,5.30
2018,04,18,07,56,5.30
2018,04,18,07,57,5.30
2018,04,18,07,58,5.30
2018,04,18,07,59,5.30
2018,04,18,08,00,5.40
2018,04,18,08,01,5.40
2018,04,18,08,02,5.50
2018,04,18,08,03,5.50
2018,04,18,08,04,5.50
2018,04,18,08,05,5.60
2018,04,18,08,06,5.60
2018,04,18,08,07,5.60
2018,04,18,08,08,5.70
2018,04,18,08,09,5.70
2018,04,18,08,10,5.70
2018,04,18,08,11,5.80
2018,04,18,08,12,5.80
2018,04,18,08,13,5.90
2018,04,18,08,14,5.90
2018,04,18,08,15,5.90
2018,04,18,08,16,5.90
2018,04,18,08,17,5.90
2018,04,18,08,18,6.00
2018,04,18,08,19,6.00
2018,04,18,08,20,6.10
2018,04,18,08,21,6.10
2018,04,18,08,22,6.10
2018,04,18,08,23,6.10
2018,04,18,08,24,6.20
2018,04,18,08,25,6.20
2018,04,18,08,26,6.20
2018,04,18,08,27,6.20
2018,04,18,08,28,6.30
2018,04,18,08,29,6.30
2018,04,18,08,30,6.40
2018,04,18,08,31,6.40
2018,04,18,08,32,6.50
2018,04,18,08,33,6.50
2018,04,18,08,34,6.60
2018,04,18,08,35,6.60
2018,04,18,08,36,6.70
2018,04,18,08,37,6.70
2018,04,18,08,38,6.80
2018,04,18,08,39,6.80
2018,04,18,08,40,6.90
2018,04,18,08,41,6.90
2018,04,18,08,42,7.00
2018,04,18,08,43,7.00
2018,04,18,08,44,7.10
2018,04,18,08,45,7.10
2018,04,18,08,46,7.20
2018,04,18,08,47,7.20
2018,04,18,08,48,7.20
2018,04,18,08,49,7.20
2018,04,18,08,50,7.20
2018,04,18,08,51,7.20
2018,04,18,08,52,7.20
2018,04,18,08,53,7.20
2018,04,18,08,54,7.20
2018,04,18,08,55,7.20
2018,04,18,08,56,7.20
2018,04,18,08,57,7.20
2018,04,18,08,58,7.20
2018,04,18,08,59,7.20
2018,04,18,09,00,7.30
2018,04,18,09,01,7.30
2018,04,18,09,02,7.30
2018,04,18,09,03,7.30
2018,04,18,09,04,7.30
2018,04,18,09,05,7.30
2018,04,18,09,06,7.30
2018,04,18,09,07,7.30
2018,04,18,09,08,7.30
2018,04,18,09,09,7.30
2018,04,18,09,10,7.30
2018,04,18,09,11,7.30
2018,04,18,09,12,7.30
2018,04,18,09,13,7.30
2018,04,18,09,14,7.30
2018,04,18,09,15,7.30
2018,04,18,09,16,7.30
2018,04,18,09,17,7.30
2018,04,18,09,18,7.30
2018,04,18,09,19,7.30
2018,04,18,09,20,7.30
2018,04,18,09,21,7.30
2018,04,18,09,22,7.40
2018,04,18,09,23,7.40
2018,04,18,09,24,7.40
2018,04,18,09,25,7.50
2018,04,18,09,26,7.50
2018,04,18,09,27,7.50
2018,04,18,09,28,7.60
2018,04,18,09,29,7.60
2018,04,18,09,30,7.60
2018,04,18,09,31,7.60
2018,04,18,09,32,7.60
2018,04,18,09,33,7.60
2018,04,18,09,34,7.70
2018,04,18,09,35,7.70
2018,04,18,09,36,7.70
2018,04,18,09,37,7.80
2018,04,18,09,38,7.80
2018,04,18,09,39,7.80
2018,04,18,09,40,7.90
2018,04,18,09,41,8.00
2018,04,18,09,42,8.10
2018,04,18,09,43,8.10
2018,04,18,09,44,8.10
2018,04,18,09,45,8.10
2018,04,18,09,46,8.10
2018,04,18,09,47,8.10
2018,04,18,09,48,8.20
2018,04,18,09,49,8.20
2018,04,18,09,50,8.20
2018,04,18,09,51,8.30
2018,04,18,09,52,8.30
2018,04,18,09,53,8.30
2018,04,18,09,54,8.40
2018,04,18,09,55,8.40
2018,04,18,09,56,8.40
2018,04,18,09,57,8.50
2018,04,18,09,58,8.50
2018,04,18,09,59,8.60
2018,04,18,10,00,8.70
2018,04,18,10,01,8.70
2018,04,18,10,02,8.80
2018,04,18,10,03,8.80
2018,04,18,10,04,8.80
2018,04,18,10,05,8.80
2018,04,18,10,06,8.80
2018,04,18,10,07,8.90
2018,04,18,10,08,8.90
2018,04,18,10,09,9.00
2018,04,18,10,10,9.10
2018,04,18,10,11,9.20
2018,04,18,10,12,9.30
2018,04,18,10,13,9.40
2018,04,18,10,14,9.40
2018,04,18,10,15,9.50
2018,04,18,10,16,9.50
2018,04,18,10,17,9.60
2018,04,18,10,18,9.70
2018,04,18,10,19,9.80
2018,04,18,10,20,9.90
2018,04,18,10,21,10.00
2018,04,18,10,22,10.00
2018,04,18,10,23,10.10
2018,04,18,10,24,10.00
2018,04,18,10,25,10.00
2018,04,18,10,26,10.00
2018,04,18,10,27,10.00
2018,04,18,10,28,10.10
2018,04,18,10,29,10.10
2018,04,18,10,30,10.20
2018,04,18,10,31,10.20
2018,04,18,10,32,10.20
2018,04,18,10,33,10.20
2018,04,18,10,34,10.30
2018,04,18,10,35,10.30
2018,04,18,10,36,10.40
2018,04,18,10,37,10.40
2018,04,18,10,38,10.50
2018,04,18,10,39,10.50
2018,04,18,10,40,10.60
2018,04,18,10,41,10.60
2018,04,18,10,42,10.50
2018,04,18,10,43,10.50
2018,04,18,10,44,10.50
2018,04,18,10,45,10.50
2018,04,18,10,46,10.50
2018,04,18,10,47,10.60
2018,04,18,10,48,10.60
2018,04,18,10,49,10.60
2018,04,18,10,50,10.50
2018,04,18,10,51,10.50
2018,04,18,10,52,10.40
2018,04,18,10,53,10.40
2018,04,18,10,54,10.50
2018,04,18,10,55,10.50
2018,04,18,10,56,10.60
2018,04,18,10,57,10.60
2018,04,18,10,58,10.70
2018,04,18,10,59,10.80
2018,04,18,11,00,10.80
2018,04,18,11,01,10.70
2018,04,18,11,02,10.70
2018,04,18,11,03,10.70
2018,04,18,11,04,10.70
2018,04,18,11,05,10.80
2018,04,18,11,06,10.80
2018,04,18,11,07,10.80
2018,04,18,11,08,10.90
2018,04,18,11,09,10.90
2018,04,18,11,10,10.90
2018,04,18,11,11,10.90
2018,04,18,11,12,10.80
2018,04,18,11,13,10.80
2018,04,18,11,14,10.80
2018,04,18,11,15,10.70
2018,04,18,11,16,10.70
2018,04,18,11,17,10.70
2018,04,18,11,18,10.60
2018,04,18,11,19,10.60
2018,04,18,11,20,10.70
2018,04,18,11,21,10.70
2018,04,18,11,22,10.70
2018,04,18,11,23,10.70
2018,04,18,11,24,10.80
2018,04,18,11,25,10.80
2018,04,18,11,26,10.70
2018,04,18,11,27,10.70
2018,04,18,11,28,10.60
2018,04,18,11,29,10.50
2018,04,18,11,30,10.50
2018,04,18,11,31,10.50
2018,04,18,11,32,10.40
2018,04,18,11,33,10.40
2018,04,18,11,34,10.30
2018,04,18,11,35,10.30
2018,04,18,11,36,10.30
2018,04,18,11,37,10.20
2018,04,18,11,38,10.20
2018,04,18,11,39,10.20
2018,04,18,11,40,10.30
2018,04,18,11,41,10.30
2018,04,18,11,42,10.40
2018,04,18,11,43,10.50
2018,04,18,11,44,10.50
2018,04,18,11,45,10.60
2018,04,18,11,46,10.60
2018,04,18,11,47,10.80
2018,04,18,11,48,10.80
2018,04,18,11,49,10.80
2018,04,18,11,50,10.80
2018,04,18,11,51,10.80
2018,04,18,11,52,10.80
2018,04,18,11,53,10.80
2018,04,18,11,54,10.80
2018,04,18,11,55,10.90
2018,04,18,11,56,10.90
2018,04,18,11,57,11.00
2018,04,18,11,58,11.00
2018,04,18,11,59,11.10
2018,04,18,12,00,11.00
2018,04,18,12,01,11.00
2018,04,18,12,02,11.00
2018,04,18,12,03,11.00
2018,04,18,12,04,11.10
2018,04,18,12,05,11.00
2018,04,18,12,06,11.00
2018,04,18,12,07,11.00
2018,04,18,12,08,11.10
2018,04,18,12,09,11.00
2018,04,18,12,10,11.00
2018,04,18,12,11,11.00
2018,04,18,12,12,11.10
2018,04,18,12,13,11.10
2018,04,18,12,14,11.10
2018,04,18,12,15,11.20
2018,04,18,12,16,11.20
2018,04,18,12,17,11.30
2018,04,18,12,18,11.30
2018,04,18,12,19,11.30
2018,04,18,12,20,11.20
2018,04,18,12,21,11.20
2018,04,18,12,22,11.20
2018,04,18,12,23,11.30
2018,04,18,12,24,11.30
2018,04,18,12,25,11.30
2018,04,18,12,26,11.30
2018,04,18,12,27,11.30
2018,04,18,12,28,11.40
2018,04,18,12,29,11.40
2018,04,18,12,30,11.40
2018,04,18,12,31,11.30
2018,04,18,12,32,11.20
2018,04,18,12,33,11.10
2018,04,18,12,34,11.10
2018,04,18,12,35,11.10
2018,04,18,12,36,11.10
2018,04,18,12,37,11.10
2018,04,18,12,38,11.20
2018,04,18,12,39,11.20
2018,04,18,12,40,11.30
2018,04,18,12,41,11.40
2018,04,18,12,42,11.40
2018,04,18,12,43,11.40
2018,04,18,12,44,11.40
2018,04,18,12,45,11.40
2018,04,18,12,46,11.40
2018,04,18,12,47,11.50
2018,04,18,12,48,11.50
2018,04,18,12,49,11.60
2018,04,18,12,50,11.70
2018,04,18,12,51,11.80
2018,04,18,12,52,11.90
2018,04,18,12,53,11.90
2018,04,18,12,54,12.00
2018,04,18,12,55,12.00
2018,04,18,12,56,12.00
2018,04,18,12,57,12.00
2018,04,18,12,58,12.00
2018,04,18,12,59,11.90
2018,04,18,13,00,11.90
2018,04,18,13,01,11.90
2018,04,18,13,02,11.90
2018,04,18,13,03,11.90
2018,04,18,13,04,12.00
2018,04,18,13,05,12.00
2018,04,18,13,06,12.10
2018,04,18,13,07,12.10
2018,04,18,13,08,12.10
2018,04,18,13,09,12.10
2018,04,18,13,10,12.10
2018,04,18,13,11,12.20
2018,04,18,13,12,12.10
2018,04,18,13,13,12.10
2018,04,18,13,14,12.00
2018,04,18,13,15,12.00
2018,04,18,13,16,11.90
2018,04,18,13,17,11.80
2018,04,18,13,18,11.80
2018,04,18,13,19,11.80
2018,04,18,13,20,11.80
2018,04,18,13,21,11.80
2018,04,18,13,22,11.90
2018,04,18,13,23,11.90
2018,04,18,13,24,12.00
2018,04,18,13,25,12.00
2018,04,18,13,26,12.10
2018,04,18,13,27,12.10
2018,04,18,13,28,12.10
2018,04,18,13,29,12.10
2018,04,18,13,30,12.10
2018,04,18,13,31,12.20
2018,04,18,13,32,12.20
2018,04,18,13,33,12.20
2018,04,18,13,34,12.30
2018,04,18,13,35,12.40
2018,04,18,13,36,12.40
2018,04,18,13,37,12.40
2018,04,18,13,38,12.40
2018,04,18,13,39,12.40
2018,04,18,13,40,12.40
2018,04,18,13,41,12.50
2018,04,18,13,42,12.60
2018,04,18,13,43,12.70
2018,04,18,13,44,12.70
2018,04,18,13,45,12.70
2018,04,18,13,46,12.70
2018,04,18,13,47,12.70
2018,04,18,13,48,12.70
2018,04,18,13,49,12.60
2018,04,18,13,50,12.60
2018,04,18,13,51,12.60
2018,04,18,13,52,12.60
2018,04,18,13,53,12.60
2018,04,18,13,54,12.60
2018,04,18,13,55,12.50
2018,04,18,13,56,12.50
2018,04,18,13,57,12.50
2018,04,18,13,58,12.40
2018,04,18,13,59,12.30
2018,04,18,14,00,12.30
2018,04,18,14,01,12.30
2018,04,18,14,02,12.30
2018,04,18,14,03,12.30
2018,04,18,14,04,12.30
2018,04,18,14,05,12.30
2018,04,18,14,06,12.30
2018,04,18,14,07,12.30
2018,04,18,14,08,12.30
2018,04,18,14,09,12.40
2018,04,18,14,10,12.40
2018,04,18,14,11,12.40
2018,04,18,14,12,12.40
2018,04,18,14,13,12.40
2018,04,18,14,14,12.30
2018,04,18,14,15,12.30
2018,04,18,14,16,12.30
2018,04,18,14,17,12.30
2018,04,18,14,18,12.40
2018,04,18,14,19,12.40
2018,04,18,14,20,12.40
2018,04,18,14,21,12.40
2018,04,18,14,22,12.40
2018,04,18,14,23,12.40
2018,04,18,14,24,12.50
2018,04,18,14,25,12.50
2018,04,18,14,26,12.50
2018,04,18,14,27,12.60
2018,04,18,14,28,12.70
2018,04,18,14,29,12.70
2018,04,18,14,30,12.70
2018,04,18,14,31,12.70
2018,04,18,14,32,12.60
2018,04,18,14,33,12.60
2018,04,18,14,34,12.60
2018,04,18,14,35,12.60
2018,04,18,14,36,12.60
2018,04,18,14,37,12.70
2018,04,18,14,38,12.70
2018,04,18,14,39,12.70
2018,04,18,14,40,12.70
2018,04,18,14,41,12.70
2018,04,18,14,42,12.80
2018,04,18,14,43,12.80
2018,04,18,14,44,12.80
2018,04,18,14,45,12.80
2018,04,18,14,46,12.80
2018,04,18,14,47,12.80
2018,04,18,14,48,12.80
2018,04,18,14,49,12.80
2018,04,18,14,50,12.80
2018,04,18,14,51,12.80
2018,04,18,14,52,12.80
2018,04,18,14,53,12.90
2018,04,18,14,54,12.90
2018,04,18,14,55,12.90
2018,04,18,14,56,13.00
2018,04,18,14,57,12.90
2018,04,18,14,58,12.90
2018,04,18,14,59,12.90
2018,04,18,15,00,12.90
2018,04,18,15,01,13.00
2018,04,18,15,02,12.90
2018,04,18,15,03,12.90
2018,04,18,15,04,12.90
2018,04,18,15,05,12.90
2018,04,18,15,06,12.90
2018,04,18,15,07,12.90
2018,04,18,15,08,12.80
2018,04,18,15,09,12.80
2018,04,18,15,10,12.70
2018,04,18,15,11,12.70
2018,04,18,15,12,12.70
2018,04,18,15,13,12.70
2018,04,18,15,14,12.70
2018,04,18,15,15,12.70
2018,04,18,15,16,12.70
2018,04,18,15,17,12.80
2018,04,18,15,18,12.90
2018,04,18,15,19,12.90
2018,04,18,15,20,12.90
2018,04,18,15,21,12.90
2018,04,18,15,22,13.00
2018,04,18,15,23,13.10
2018,04,18,15,24,13.10
2018,04,18,15,25,13.20
2018,04,18,15,26,13.20
2018,04,18,15,27,13.20
2018,04,18,15,28,13.20
2018,04,18,15,29,13.30
2018,04,18,15,30,13.30
2018,04,18,15,31,13.30
2018,04,18,15,32,13.30
2018,04,18,15,33,13.40
2018,04,18,15,34,13.40
2018,04,18,15,35,13.50
2018,04,18,15,36,13.60
2018,04,18,15,37,13.60
2018,04,18,15,38,13.60
2018,04,18,15,39,13.60
2018,04,18,15,40,13.60
2018,04,18,15,41,13.70
2018,04,18,15,42,13.70
2018,04,18,15,43,13.80
2018,04,18,15,44,13.90
2018,04,18,15,45,13.90
2018,04,18,15,46,13.90
2018,04,18,15,47,13.90
2018,04,18,15,48,13.90
2018,04,18,15,49,13.90
2018,04,18,15,50,13.90
2018,04,18,15,51,13.90
2018,04,18,15,52,13.80
2018,04,18,15,53,13.80
2018,04,18,15,54,13.70
2018,04,18,15,55,13.70
2018,04,18,15,56,13.70
2018,04,18,15,57,13.70
2018,04,18,15,58,13.70
2018,04,18,15,59,13.70
2018,04,18,16,00,13.70
2018,04,18,16,01,13.70
2018,04,18,16,02,13.80
2018,04,18,16,03,13.80
2018,04,18,16,04,13.70
2018,04,18,16,05,13.50
2018,04,18,16,06,13.30
2018,04,18,16,07,13.20
2018,04,18,16,08,13.20
2018,04,18,16,09,13.20
2018,04,18,16,10,13.20
2018,04,18,16,11,13.30
2018,04,18,16,12,13.30
2018,04,18,16,13,13.40
2018,04,18,16,14,13.50
2018,04,18,16,15,13.50
2018,04,18,16,16,13.50
2018,04,18,16,17,13.60
2018,04,18,16,18,13.60
2018,04,18,16,19,13.70
2018,04,18,16,20,13.80
2018,04,18,16,21,13.80
2018,04,18,16,22,13.90
2018,04,18,16,23,14.10
2018,04,18,16,24,14.20
2018,04,18,16,25,14.30
2018,04,18,16,26,14.50
2018,04,18,16,27,14.50
2018,04,18,16,28,14.70
2018,04,18,16,29,14.70
2018,04,18,16,30,14.80
2018,04,18,16,31,14.80
2018,04,18,16,32,14.70
2018,04,18,16,33,14.60
2018,04,18,16,34,14.50
2018,04,18,16,35,14.50
2018,04,18,16,36,14.40
2018,04,18,16,37,14.30
2018,04,18,16,38,14.30
2018,04,18,16,39,14.30
2018,04,18,16,40,14.30
2018,04,18,16,41,14.30
2018,04,18,16,42,14.30
2018,04,18,16,43,14.20
2018,04,18,16,44,14.10
2018,04,18,16,45,14.10
2018,04,18,16,46,14.00
2018,04,18,16,47,13.90
2018,04,18,16,48,13.90
2018,04,18,16,49,13.90
2018,04,18,16,50,13.90
2018,04,18,16,51,13.90
2018,04,18,16,52,14.00
2018,04,18,16,53,14.00
2018,04,18,16,54,14.00
2018,04,18,16,55,14.00
2018,04,18,16,56,14.00
2018,04,18,16,57,14.00
2018,04,18,16,58,14.00
2018,04,18,16,59,13.90
2018,04,18,17,00,13.90
2018,04,18,17,01,13.80
2018,04,18,17,02,13.70
2018,04,18,17,03,13.70
2018,04,18,17,04,13.60
2018,04,18,17,05,13.60
2018,04,18,17,06,13.60
2018,04,18,17,07,13.60
2018,04,18,17,08,13.60
2018,04,18,17,09,13.60
2018,04,18,17,10,13.60
2018,04,18,17,11,13.60
2018,04,18,17,12,13.60
2018,04,18,17,13,13.60
2018,04,18,17,14,13.60
2018,04,18,17,15,13.60
2018,04,18,17,16,13.60
2018,04,18,17,17,13.60
2018,04,18,17,18,13.60
2018,04,18,17,19,13.60
2018,04,18,17,20,13.60
2018,04,18,17,21,13.60
2018,04,18,17,22,13.50
2018,04,18,17,23,13.50
2018,04,18,17,24,13.40
2018,04,18,17,25,13.30
2018,04,18,17,26,13.30
2018,04,18,17,27,13.30
2018,04,18,17,28,13.20
2018,04,18,17,29,13.20
2018,04,18,17,30,13.10
2018,04,18,17,31,13.10
2018,04,18,17,32,13.10
2018,04,18,17,33,13.10
2018,04,18,17,34,13.10
2018,04,18,17,35,13.10
2018,04,18,17,36,13.10
2018,04,18,17,37,13.20
2018,04,18,17,38,13.20
2018,04,18,17,39,13.30
2018,04,18,17,40,13.30
2018,04,18,17,41,13.20
2018,04,18,17,42,13.10
2018,04,18,17,43,13.10
2018,04,18,17,44,13.10
2018,04,18,17,45,13.00
2018,04,18,17,46,13.10